Location: Balcones
(3.7244°N, 75.6017°W)
Time: 01:24:59
(UTC+00:00)

BlueWalker 3 - Pass Details

Date: 13 December 2025
Orbit: 451 x 463 km, 53.2° (Epoch: 20 January)

Event Time Altitude Azimuth Distance (km) Brightness Sun altitude
Rises 23:08:09 0° 333° (NNW) 2,479 5.5 -4.0°
Reaches altitude 10° 23:10:19 10° 338° (NNW) 1,606 4.5 -4.5°
Maximum altitude 23:13:52 54° 56° (NE) 567 1.9 -5.4°
Drops below altitude 10° 23:17:25 10° 134° (SE) 1,606 4.3 -6.2°
Sets 23:19:35 0° 139° (SE) 2,480 5.3 -6.7°
